[[{"header":{"parameterUnit":"m.s-1","parameterCategory":1,"la1":30.2991,"la2":30.254,"lo1":-89.0895,"lo2":-89.0444,"dy":0.0017,"dx":0.0017,"nx":28,"ny":28,"refTime":"2024-03-06T09:00:00:Z","depth":0,"parameterNumber":2,"parameterNumberName":"U-component_of_WINDS"},"data":[0,0,0,0,0,0,0,0,0,0,0,0,0,0,0,0,0,0,0,0,0,0,0,0,0,0,0,0,0,0,0,0,0,0,0,0,0,0,0,0,0,0,0,0,0,0,0,0,0,0,0,0,0,0,0,0,0,0,1.3368,1.3369,0,1.3451,1.3452,1.3453,1.3449,1.3448,1.3446,1.3445,1.3534,1.3537,1.3541,0,0,0,0,0,0,0,0,0,0,0,0,0,1.321,1.3213,1.3368,1.3369,1.337,1.3451,1.3452,1.3454,1.3449,1.3448,1.3446,1.3445,1.3533,1.3537,1.3541,0,0,0,0,0,0,0,0,0,0,0,0,0,1.3285,1.3214,1.3368,1.3378,1.3379,1.3451,1.3452,1.3454,1.3449,1.3448,1.3446,1.3444,1.3532,1.3537,1.3542,1.361,0,0,1.3558,1.356,0,0,0,0,0,0,0,0,1.328,1.329,1.3375,1.3377,1.3379,1.3438,1.3429,1.3506,1.345,1.3423,1.3445,1.3443,1.3504,1.3511,1.3531,1.3614,1.3618,1.3558,1.3561,1.3564,1.3565,0,0,0,0,0,0,0,1.3275,1.3287,1.3401,1.3376,1.3379,1.3379,1.3388,1.3444,1.3473,1.3425,1.3425,1.3435,1.3504,1.3526,1.3533,1.3619,1.3558,1.3563,1.3566,1.3568,1.3767,1.3769,0,0,0,0,0,0,1.3267,1.3282,1.3399,1.3404,1.3324,1.3384,1.3393,1.3421,1.3472,1.3478,1.3436,1.3434,1.3518,1.3527,1.3536,1.3622,1.3564,1.3568,1.3571,1.3765,1.3767,1.377,0,0,0,0,0,0,1.3264,1.3278,1.3395,1.3343,1.3358,1.3388,1.3419,1.3423,1.3445,1.348,1.3486,1.3452,1.3517,1.3529,1.3592,1.3625,1.3571,1.3576,1.3762,1.3766,1.3769,1.3793,0,0,0,0,0,0,1.3259,1.3276,1.3302,1.3344,1.3361,1.3449,1.3421,1.3426,1.3453,1.3452,1.3497,1.3503,1.3516,1.3585,1.3597,1.3631,1.358,1.3759,1.3764,1.3767,1.3789,1.3797,1.3803,0,0,0,0,0,1.3254,1.3305,1.3303,1.3317,1.3393,1.3451,1.3461,1.3474,1.3456,1.3483,1.3506,1.3501,1.3619,1.3591,1.3606,1.3641,1.3758,1.3762,1.3767,1.3786,1.3795,1.3803,0,0,0,0,0,0,1.3267,1.3311,1.3309,1.3375,1.3409,1.345,1.3483,1.3482,1.3523,1.352,1.3536,1.3546,1.3611,1.3632,1.36,1.3712,1.3686,1.3694,1.3696,1.3704,1.3711,1.3706,1.3584,0,0,0,0,0,1.3277,1.3319,1.3356,1.3411,1.3428,1.3453,1.3479,1.3486,1.3522,1.3537,1.3565,1.3601,1.3647,1.3676,1.372,1.3792,1.3804,1.3824,1.3831,1.3836,1.3843,1.3886,1.3897,1.3786,1.3785,1.3785,0,0,1.33,1.3329,1.3355,1.3415,1.3442,1.3487,1.3465,1.3513,1.3547,1.3545,1.3607,1.3629,1.3671,1.374,1.3771,1.376,1.3876,1.3842,1.3846,1.3851,1.3892,1.3903,1.3912,1.3789,1.3788,1.3788,0,0,1.3364,1.3389,1.3439,1.3467,1.3509,1.3525,1.3537,1.3578,1.3592,1.3655,1.3655,1.3696,1.3773,1.3804,1.383,1.3908,1.3907,1.3921,1.3957,1.3999,1.4008,1.4016,1.4046,1.4057,1.3928,1.3928,1.3928,0,1.3388,1.3454,1.3465,1.3515,1.3542,1.3541,1.3593,1.362,1.3674,1.3694,1.3679,1.3778,1.3805,1.3883,1.3902,1.3922,1.3939,1.3917,1.4005,1.4013,1.4021,1.405,1.4062,1.393,1.393,1.393,1.393,0,1.3482,1.3528,1.3564,1.3616,1.3647,1.3697,1.3718,1.3749,1.3754,1.3772,1.3838,1.3871,1.3923,1.3941,1.3947,1.4021,1.4013,1.4001,1.3976,1.4033,1.4061,1.4072,1.3933,1.3932,1.3932,1.3931,0,0,1.3558,1.3616,1.3629,1.3654,1.37,1.3737,1.3788,1.3837,1.3865,1.3902,1.3948,1.4013,1.4004,1.4033,1.4042,1.4078,1.4142,1.4063,1.4065,1.4079,1.4229,1.4239,1.4252,1.414,1.4142,1.4144,1.4227,0,1.3629,1.3719,1.3731,1.3811,1.3856,1.3856,1.3901,1.3936,1.3954,1.3997,1.4018,1.4065,1.4048,1.4066,1.4101,1.4126,1.4173,1.412,1.4185,1.4188,1.4177,1.4266,1.4276,1.4353,1.4237,1.4239,1.4241,0,1.3724,1.3764,1.3849,1.3891,1.391,1.395,1.3998,1.4037,1.4077,1.4089,1.4122,1.4127,1.4183,1.4153,1.4232,1.4196,1.4224,1.424,1.4243,1.4252,1.4219,1.428,1.4377,1.439,1.4257,1.4256,1.4255,0,1.3775,1.3849,1.391,1.3931,1.3981,1.401,1.4032,1.407,1.41,1.4142,1.4162,1.421,1.4238,1.4276,1.4295,1.4271,1.4373,1.4345,1.4387,1.4387,1.441,1.4409,1.4516,1.4423,1.4423,1.4423,1.4422,0,1.3854,1.3907,1.3934,1.3972,1.4031,1.4046,1.4105,1.4127,1.4161,1.4205,1.4207,1.4249,1.4269,1.4315,1.433,1.4394,1.4406,1.4419,1.4423,1.442,1.4419,1.444,1.4436,1.4426,1.4425,1.4424,1.4424,0,1.3921,1.3941,1.4008,1.405,1.4062,1.4104,1.4141,1.4179,1.4198,1.4253,1.4267,1.4297,1.4351,1.4373,1.4438,1.4448,1.4524,1.4522,1.451,1.4512,1.4554,1.4551,1.4681,1.47,1.4592,1.4593,1.4593,0,1.3972,1.4013,1.4059,1.4088,1.4111,1.4158,1.4188,1.4205,1.4237,1.4286,1.4319,1.4372,1.4416,1.4502,1.4531,1.4582,1.4583,1.4625,1.4591,1.4588,1.4588,1.4586,1.4592,1.4632,1.4633,1.4634,1.4635,0,1.4062,1.407,1.4113,1.4161,1.4197,1.4235,1.4273,1.4297,1.432,1.4356,1.441,1.4444,1.4511,1.4566,1.4618,1.4644,1.4645,1.4645,1.4658,1.4657,1.465,1.4658,1.453,1.4643,1.4642,1.4641,1.4641,1.4641,1.4124,1.4161,1.42,1.4249,1.4279,1.4315,1.4353,1.4377,1.4422,1.4477,1.4484,1.4544,1.4585,1.4656,1.4683,1.4731,1.4721,1.4739,1.4744,1.4749,1.4753,1.464,1.4741,1.474,1.474,1.474,1.474,0,1.4216,1.4241,1.4286,1.4339,1.4378,1.4373,1.4415,1.4449,1.4501,1.4538,1.4581,1.4646,1.4698,1.4731,1.4785,1.4818,1.482,1.4832,1.4831,1.4837,1.4758,1.4743,1.4829,1.4829,1.4829,1.4829,1.4829,1.4829,1.4269,1.4332,1.4345,1.4425,1.445,1.4507,1.4532,1.4566,1.4596,1.4667,1.4711,1.4731,1.4768,1.4825,1.4874,1.4883,1.4904,1.4917,1.4926,1.4852,1.4842,1.4834,1.482,1.4921,1.4921,1.5002,1.5002,1.5003]},{"header":{"parameterUnit":"m.s-1","parameterCategory":1,"la1":30.2991,"la2":30.254,"lo1":-89.0895,"lo2":-89.0444,"dy":0.0017,"dx":0.0017,"nx":28,"ny":28,"refTime":"2024-03-06T09:00:00:Z","depth":0,"parameterNumber":3,"parameterNumberName":"V-component_of_WINDS"},"data":[0,0,0,0,0,0,0,0,0,0,0,0,0,0,0,0,0,0,0,0,0,0,0,0,0,0,0,0,0,0,0,0,0,0,0,0,0,0,0,0,0,0,0,0,0,0,0,0,0,0,0,0,0,0,0,0,0,0,-2.2733,-2.2733,0,-2.2726,-2.2725,-2.2725,-2.2726,-2.2726,-2.2727,-2.2727,-2.2717,-2.2717,-2.2717,0,0,0,0,0,0,0,0,0,0,0,0,0,-2.2745,-2.2744,-2.2733,-2.2733,-2.2733,-2.2726,-2.2725,-2.2725,-2.2726,-2.2726,-2.2727,-2.2727,-2.2718,-2.2717,-2.2717,0,0,0,0,0,0,0,0,0,0,0,0,0,-2.2739,-2.2744,-2.2733,-2.2732,-2.2732,-2.2726,-2.2725,-2.2725,-2.2726,-2.2726,-2.2727,-2.2727,-2.2718,-2.2717,-2.2717,-2.271,0,0,-2.2715,-2.2715,0,0,0,0,0,0,0,0,-2.2739,-2.2738,-2.2732,-2.2732,-2.2732,-2.2727,-2.2726,-2.272,-2.2726,-2.2728,-2.2727,-2.2727,-2.272,-2.272,-2.2718,-2.2709,-2.2709,-2.2715,-2.2715,-2.2714,-2.2714,0,0,0,0,0,0,0,-2.2739,-2.2739,-2.273,-2.2732,-2.2732,-2.2731,-2.2731,-2.2725,-2.2723,-2.2728,-2.2728,-2.2728,-2.272,-2.2718,-2.2718,-2.2709,-2.2715,-2.2715,-2.2714,-2.2714,-2.2692,-2.2692,0,0,0,0,0,0,-2.274,-2.2739,-2.273,-2.273,-2.2736,-2.2731,-2.273,-2.2728,-2.2724,-2.2723,-2.2727,-2.2728,-2.2719,-2.2718,-2.2717,-2.2707,-2.2714,-2.2714,-2.2714,-2.2692,-2.2692,-2.2691,0,0,0,0,0,0,-2.2741,-2.274,-2.273,-2.2734,-2.2733,-2.2731,-2.2729,-2.2728,-2.2726,-2.2723,-2.2722,-2.2726,-2.2719,-2.2718,-2.2711,-2.2707,-2.2714,-2.2713,-2.2692,-2.2692,-2.2692,-2.2688,0,0,0,0,0,0,-2.2741,-2.274,-2.2738,-2.2734,-2.2733,-2.2725,-2.2728,-2.2728,-2.2726,-2.2726,-2.2721,-2.2721,-2.2719,-2.2712,-2.2711,-2.2707,-2.2713,-2.2693,-2.2692,-2.2692,-2.2689,-2.2688,-2.2687,0,0,0,0,0,-2.2741,-2.2737,-2.2738,-2.2736,-2.273,-2.2725,-2.2724,-2.2723,-2.2725,-2.2723,-2.272,-2.2721,-2.2708,-2.2711,-2.271,-2.2705,-2.2693,-2.2692,-2.2692,-2.2689,-2.2688,-2.2687,0,0,0,0,0,0,-2.274,-2.2737,-2.2737,-2.2732,-2.2729,-2.2725,-2.2722,-2.2722,-2.2718,-2.2719,-2.2717,-2.2716,-2.2709,-2.2707,-2.271,-2.2697,-2.2701,-2.27,-2.2699,-2.2698,-2.2697,-2.2698,-2.2712,0,0,0,0,0,-2.2739,-2.2735,-2.2733,-2.2728,-2.2727,-2.2725,-2.2722,-2.2722,-2.2718,-2.2717,-2.2714,-2.271,-2.2705,-2.2701,-2.2697,-2.2689,-2.2687,-2.2685,-2.2684,-2.2683,-2.2682,-2.2676,-2.2675,-2.269,-2.269,-2.269,0,0,-2.2737,-2.2735,-2.2733,-2.2728,-2.2725,-2.2721,-2.2724,-2.2719,-2.2715,-2.2716,-2.2709,-2.2707,-2.2702,-2.2694,-2.2691,-2.2692,-2.2678,-2.2682,-2.2682,-2.2681,-2.2675,-2.2674,-2.2673,-2.2689,-2.2689,-2.2689,0,0,-2.2731,-2.2729,-2.2725,-2.2722,-2.2718,-2.2717,-2.2716,-2.2712,-2.271,-2.2704,-2.2704,-2.2699,-2.269,-2.2686,-2.2683,-2.2674,-2.2674,-2.2673,-2.2668,-2.2662,-2.2661,-2.266,-2.2655,-2.2653,-2.2672,-2.2672,-2.2672,0,-2.2728,-2.2722,-2.2722,-2.2717,-2.2715,-2.2715,-2.271,-2.2707,-2.2702,-2.2699,-2.2701,-2.2689,-2.2686,-2.2677,-2.2674,-2.2672,-2.267,-2.2673,-2.2661,-2.266,-2.2659,-2.2654,-2.2653,-2.2672,-2.2672,-2.2672,-2.2672,0,-2.2719,-2.2715,-2.2712,-2.2707,-2.2703,-2.2698,-2.2696,-2.2693,-2.2692,-2.269,-2.2682,-2.2678,-2.2672,-2.267,-2.2669,-2.266,-2.266,-2.2662,-2.2665,-2.2657,-2.2653,-2.2651,-2.2671,-2.2671,-2.2671,-2.2671,0,0,-2.2712,-2.2707,-2.2705,-2.2702,-2.2698,-2.2694,-2.2688,-2.2682,-2.2679,-2.2675,-2.2669,-2.2661,-2.2662,-2.2658,-2.2657,-2.2652,-2.2643,-2.2654,-2.2653,-2.2651,-2.263,-2.2628,-2.2626,-2.2643,-2.2643,-2.2642,-2.263,0,-2.2705,-2.2696,-2.2695,-2.2686,-2.2681,-2.2681,-2.2675,-2.2671,-2.2669,-2.2663,-2.266,-2.2654,-2.2657,-2.2654,-2.2649,-2.2645,-2.2638,-2.2646,-2.2636,-2.2635,-2.2636,-2.2624,-2.2623,-2.2611,-2.2628,-2.2628,-2.2628,0,-2.2695,-2.2691,-2.2682,-2.2677,-2.2675,-2.267,-2.2664,-2.2659,-2.2654,-2.2652,-2.2647,-2.2646,-2.2639,-2.2642,-2.2631,-2.2636,-2.2631,-2.2629,-2.2628,-2.2627,-2.2631,-2.2621,-2.2608,-2.2605,-2.2625,-2.2625,-2.2626,0,-2.269,-2.2682,-2.2675,-2.2673,-2.2667,-2.2663,-2.266,-2.2655,-2.2651,-2.2645,-2.2642,-2.2635,-2.2631,-2.2625,-2.2622,-2.2625,-2.261,-2.2614,-2.2607,-2.2607,-2.2603,-2.2603,-2.2588,-2.2602,-2.2602,-2.2602,-2.2602,0,-2.2681,-2.2676,-2.2672,-2.2668,-2.2661,-2.2659,-2.2651,-2.2648,-2.2643,-2.2637,-2.2637,-2.2631,-2.2627,-2.262,-2.2617,-2.2607,-2.2605,-2.2602,-2.2602,-2.2602,-2.2602,-2.2599,-2.2599,-2.2602,-2.2602,-2.2602,-2.2602,0,-2.2674,-2.2672,-2.2664,-2.2659,-2.2657,-2.2652,-2.2647,-2.2642,-2.2639,-2.2631,-2.2629,-2.2624,-2.2616,-2.2612,-2.2601,-2.2599,-2.2587,-2.2587,-2.2589,-2.2588,-2.2581,-2.2581,-2.2562,-2.2559,-2.2576,-2.2576,-2.2576,0,-2.2669,-2.2664,-2.2658,-2.2654,-2.2651,-2.2645,-2.2641,-2.2639,-2.2634,-2.2626,-2.2622,-2.2613,-2.2607,-2.2593,-2.2587,-2.2579,-2.2578,-2.2572,-2.2577,-2.2576,-2.2576,-2.2576,-2.2575,-2.2571,-2.257,-2.257,-2.257,0,-2.2659,-2.2657,-2.2652,-2.2646,-2.2641,-2.2635,-2.263,-2.2627,-2.2623,-2.2617,-2.2609,-2.2604,-2.2593,-2.2583,-2.2574,-2.257,-2.2568,-2.2569,-2.2566,-2.2566,-2.2567,-2.2565,-2.2585,-2.2569,-2.2569,-2.2569,-2.2569,-2.2569,-2.2651,-2.2647,-2.2641,-2.2635,-2.263,-2.2625,-2.262,-2.2616,-2.2609,-2.26,-2.2599,-2.2589,-2.2582,-2.2569,-2.2564,-2.2556,-2.2557,-2.2554,-2.2553,-2.2552,-2.2551,-2.2569,-2.2554,-2.2554,-2.2554,-2.2554,-2.2554,0,-2.264,-2.2637,-2.2631,-2.2623,-2.2617,-2.2618,-2.2611,-2.2606,-2.2598,-2.2592,-2.2585,-2.2574,-2.2564,-2.2558,-2.2548,-2.2542,-2.2541,-2.2539,-2.2539,-2.2538,-2.2551,-2.2553,-2.254,-2.254,-2.254,-2.254,-2.254,-2.254,-2.2634,-2.2625,-2.2623,-2.2612,-2.2608,-2.2599,-2.2595,-2.259,-2.2584,-2.2572,-2.2565,-2.2561,-2.2554,-2.2543,-2.2534,-2.2532,-2.2527,-2.2526,-2.2523,-2.2536,-2.2537,-2.2539,-2.2541,-2.2525,-2.2525,-2.2511,-2.2511,-2.251]}]]